Regional Weather Roundup
Issued by NWS

Home | Current Version | Previous Version | Graphics & Text | Print | Product List | Glossary On
Versions: 1 2 3 4 5 6 7 8 9 10 11 12 13 14 15 16 17 18 19 20 21 22 23 24 25 26 27 28 29 30 31 32 33 34 35 36 37 38 39 40 41 42 43 44 45 46 47 48 49 50
925
ASUS45 KSLC 282010
RWRUT

UTAH REGIONAL WEATHER ROUNDUP
NATIONAL WEATHER SERVICE SALT LAKE CITY UT
200 PM MDT THU JUL 28 2016

UTZ001>011-023>025-282100-

NORTHERN UTAH

CITY           SKY/WX    TMP DP  RH WIND       PRES   REMARKS
BRIGHAM CITY     N/A     95  25   8 CALM      30.09F
HILL AFB       NOT AVBL
LOGAN          SUNNY     93  34  12 N6        30.11F
OGDEN          SUNNY     96  35  11 NE8       30.10F HX  91
PROVO AIRPORT  MOSUNNY   91  41  17 SW6       30.11F
SALT LAKE CITY MOSUNNY   98  35  11 N9        30.08F HX  93
VERNAL         SUNNY     93  25   8 E6        30.11F
WENDOVER       SUNNY     93  37  14 SE8       30.10F
HEBER CITY     SUNNY     95  28   9 CALM      30.16F

$$

UTZ012>022-026-027-282100-

SOUTHERN/CENTRAL UTAH

CITY           SKY/WX    TMP DP  RH WIND       PRES   REMARKS
BLANDING       SUNNY     94  39  15 CALM      30.27F
BRYCE CANYON   PTSUNNY   91  25   9 NW14G24   30.34F
CEDAR CITY     MOSUNNY  101  29   8 VRB6      30.15F HX  94
DELTA          SUNNY     99  28   8 W6        30.10F HX  92
MILFORD        SUNNY    101  22   6 NW10G16   30.11F HX  94
MOAB/CYNLANDS  SUNNY    104  28   7 VRB7      30.03F HX  97
PRICE          SUNNY     95  24   8 SW12      30.17F
ST GEORGE      CLEAR    109  48  13 W8G18     29.91F HX 106

$$

REGIONAL REPORTS     COLORADO/ARIZONA

CITY           SKY/WX    TMP DP  RH WIND       PRES   REMARKS
CRAIG, CO      SUNNY     92  21   7 NW12      30.21F
GRAND JUNCTION SUNNY     99  23   6 VRB5      30.07F HX  92
RIFLE          SUNNY     95  28   9 VRB5      30.12F
MONTROSE       SUNNY     95  29   9 W8G17     30.18F
CORTEZ         SUNNY     96  37  12 W7        30.18F HX  91
PAGE, AZ       SUNNY    104  30   7 VRB7      30.02F HX  97
GRAND CANYON   SUNNY     94  33  11 VRB5      30.28F
KINGMAN        SUNNY    104  48  15 W16       30.01F HX 100
FLAGSTAFF      MOSUNNY   80  36  20 E21G33    30.31F

$$

REGIONAL REPORTS    NEVADA/IDAHO/WYOMING

CITY           SKY/WX    TMP DP  RH WIND       PRES   REMARKS
LAS VEGAS, NV  MOSUNNY  111  40   9 CALM      29.82F HX 105
ELY            MOSUNNY   96  24   7 MISG      30.22F HX  90
ELKO           SUNNY     97  20   6 S5        30.15F HX  90
POCATELLO, ID  SUNNY     91  37  15 NW7       30.14F
BURLEY         SUNNY     88  47  24 W8        30.11F
EVANSTON, WY   SUNNY     90  25   9 W15G25    30.30F
ROCK SPRINGS   SUNNY     84  35  17 MISG      30.25F
KEMMERER         N/A    N/A N/A N/A W23G35    30.32F

$$




USA.gov is the U.S. government's official web portal to all federal, state and local government web resources and services.